Time,TemperatureF,DewpointF,PressureIn,WindDirection,WindDirectionDegrees,WindSpeedMPH,WindSpeedGustMPH,Humidity,HourlyPrecipIn,Conditions,Clouds,dailyrainin,SolarRadiationWatts/m^2,SoftwareType,DateUTC
2013-09-12 00:03:00,62.0,52.0,-100.00,NW,316,6.0,12.0,69,0.00,,,0.00,0.000000,,2013-09-12 05:03:00,
2013-09-12 00:43:00,59.0,52.0,-100.00,NNW,335,6.0,9.0,77,0.00,,,0.00,0.000000,,2013-09-12 05:43:00,
2013-09-12 00:53:00,59.0,52.0,-100.00,NNW,335,6.0,9.0,77,0.00,,,0.00,0.000000,,2013-09-12 05:53:00,
2013-09-12 01:01:00,59.0,52.0,-100.00,NNW,335,6.0,9.0,77,0.00,,,0.00,0.000000,,2013-09-12 06:01:00,
2013-09-12 01:42:00,57.0,52.0,-100.00,NNW,338,5.0,11.0,82,0.00,,,0.00,0.000000,,2013-09-12 06:42:00,
2013-09-12 01:52:00,57.0,52.0,-100.00,NNW,338,5.0,11.0,82,0.00,,,0.00,0.000000,,2013-09-12 06:52:00,
2013-09-12 02:02:00,57.0,52.0,-100.00,NNW,338,5.0,11.0,82,0.00,,,0.00,0.000000,,2013-09-12 07:02:00,
2013-09-12 02:44:00,55.0,51.0,-100.00,NW,322,8.0,11.0,86,0.00,,,0.00,0.000000,,2013-09-12 07:44:00,
2013-09-12 02:52:00,55.0,51.0,-100.00,NW,322,8.0,11.0,86,0.00,,,0.00,0.000000,,2013-09-12 07:52:00,
2013-09-12 03:02:00,55.0,51.0,-100.00,NW,322,8.0,11.0,86,0.00,,,0.00,0.000000,,2013-09-12 08:02:00,
2013-09-12 03:42:00,55.0,51.0,-100.00,NW,313,7.0,11.0,85,0.00,,,0.00,0.000000,,2013-09-12 08:42:00,
2013-09-12 03:52:00,55.0,51.0,-100.00,NW,313,7.0,11.0,85,0.00,,,0.00,0.000000,,2013-09-12 08:52:00,
2013-09-12 04:02:00,55.0,51.0,-100.00,NW,313,7.0,11.0,85,0.00,,,0.00,0.000000,,2013-09-12 09:02:00,
2013-09-12 04:43:00,53.0,49.0,-100.00,NNW,329,5.0,9.0,87,0.00,,,0.00,0.000000,,2013-09-12 09:43:00,
2013-09-12 04:53:00,53.0,49.0,-100.00,NNW,329,5.0,9.0,87,0.00,,,0.00,0.000000,,2013-09-12 09:53:00,
2013-09-12 05:03:00,53.0,49.0,-100.00,NNW,329,5.0,9.0,87,0.00,,,0.00,0.000000,,2013-09-12 10:03:00,
2013-09-12 05:43:00,52.0,49.0,-100.00,NNW,327,4.0,7.0,90,0.00,,,0.00,0.000000,,2013-09-12 10:43:00,
2013-09-12 05:53:00,52.0,49.0,-100.00,NNW,327,4.0,7.0,90,0.00,,,0.00,0.000000,,2013-09-12 10:53:00,
2013-09-12 06:03:00,52.0,49.0,-100.00,NNW,327,4.0,7.0,90,0.00,,,0.00,0.000000,,2013-09-12 11:03:00,
2013-09-12 06:42:00,52.0,50.0,-100.00,NW,309,5.0,8.0,92,0.00,,,0.00,0.000000,,2013-09-12 11:42:00,
2013-09-12 06:52:00,52.0,50.0,-100.00,NW,309,5.0,8.0,92,0.00,,,0.00,0.000000,,2013-09-12 11:52:00,
2013-09-12 07:01:00,52.0,50.0,-100.00,NW,309,5.0,8.0,92,0.00,,,0.00,0.000000,,2013-09-12 12:01:00,
2013-09-12 07:42:00,51.0,49.0,-100.00,WNW,299,3.0,7.0,93,0.00,,,0.00,4.000000,,2013-09-12 12:42:00,
2013-09-12 07:52:00,51.0,49.0,-100.00,WNW,299,3.0,7.0,93,0.00,,,0.00,4.000000,,2013-09-12 12:52:00,
2013-09-12 08:02:00,51.0,49.0,-100.00,WNW,299,3.0,7.0,93,0.00,,,0.00,4.000000,,2013-09-12 13:02:00,
2013-09-12 08:42:00,56.0,52.0,-100.00,West,277,3.0,6.0,85,0.00,,,0.00,109.000000,,2013-09-12 13:42:00,
2013-09-12 08:52:00,56.0,52.0,-100.00,West,277,3.0,6.0,85,0.00,,,0.00,109.000000,,2013-09-12 13:52:00,
2013-09-12 09:02:00,56.0,52.0,-100.00,West,277,3.0,6.0,85,0.00,,,0.00,109.000000,,2013-09-12 14:02:00,
2013-09-12 09:42:00,62.0,54.0,-100.00,NNW,338,5.0,9.0,76,0.00,,,0.00,279.000000,,2013-09-12 14:42:00,
2013-09-12 09:52:00,62.0,54.0,-100.00,NNW,338,5.0,9.0,76,0.00,,,0.00,279.000000,,2013-09-12 14:52:00,
2013-09-12 10:02:00,62.0,54.0,-100.00,NNW,338,5.0,9.0,76,0.00,,,0.00,279.000000,,2013-09-12 15:02:00,
2013-09-12 10:44:00,65.0,51.0,-100.00,NW,323,14.0,21.0,60,0.00,,,0.00,429.000000,,2013-09-12 15:44:00,
2013-09-12 10:54:00,65.0,51.0,-100.00,NW,323,14.0,21.0,60,0.00,,,0.00,429.000000,,2013-09-12 15:54:00,
2013-09-12 11:03:00,65.0,51.0,-100.00,NW,323,14.0,21.0,60,0.00,,,0.00,429.000000,,2013-09-12 16:03:00,
2013-09-12 11:43:00,67.0,49.0,-100.00,NNW,342,10.0,21.0,53,0.00,,,0.00,565.000000,,2013-09-12 16:43:00,
2013-09-12 11:53:00,67.0,49.0,-100.00,NNW,342,10.0,21.0,53,0.00,,,0.00,565.000000,,2013-09-12 16:53:00,
2013-09-12 12:03:00,67.0,49.0,-100.00,NNW,342,10.0,21.0,53,0.00,,,0.00,565.000000,,2013-09-12 17:03:00,
2013-09-12 12:43:00,67.0,47.0,-100.00,North,352,10.0,21.0,49,0.00,,,0.00,747.000000,,2013-09-12 17:43:00,
2013-09-12 12:54:00,67.0,47.0,-100.00,North,352,10.0,21.0,49,0.00,,,0.00,747.000000,,2013-09-12 17:54:00,
2013-09-12 13:02:00,67.0,47.0,-100.00,North,352,10.0,21.0,49,0.00,,,0.00,747.000000,,2013-09-12 18:02:00,
2013-09-12 13:42:00,69.0,47.0,-100.00,NW,321,14.0,23.0,46,0.00,,,0.00,825.000000,,2013-09-12 18:42:00,
2013-09-12 13:52:00,69.0,47.0,-100.00,NW,321,14.0,23.0,46,0.00,,,0.00,825.000000,,2013-09-12 18:52:00,
2013-09-12 14:02:00,69.0,47.0,-100.00,NW,321,14.0,23.0,46,0.00,,,0.00,825.000000,,2013-09-12 19:02:00,
2013-09-12 14:42:00,67.0,46.0,-100.00,NW,326,15.0,23.0,46,0.00,,,0.00,502.000000,,2013-09-12 19:42:00,
2013-09-12 14:52:00,67.0,46.0,-100.00,NW,326,15.0,23.0,46,0.00,,,0.00,502.000000,,2013-09-12 19:52:00,
2013-09-12 15:02:00,67.0,46.0,-100.00,NW,326,15.0,23.0,46,0.00,,,0.00,502.000000,,2013-09-12 20:02:00,
2013-09-12 15:42:00,68.0,45.0,-100.00,NNW,331,17.0,24.0,44,0.00,,,0.00,587.000000,,2013-09-12 20:42:00,
2013-09-12 15:52:00,68.0,45.0,-100.00,NNW,331,17.0,24.0,44,0.00,,,0.00,587.000000,,2013-09-12 20:52:00,
2013-09-12 16:02:00,68.0,45.0,-100.00,NNW,331,17.0,24.0,44,0.00,,,0.00,587.000000,,2013-09-12 21:02:00,
2013-09-12 16:43:00,70.0,45.0,-100.00,NW,320,15.0,22.0,40,0.00,,,-99.99,467.000000,,2013-09-12 21:43:00,
2013-09-12 16:54:00,70.0,45.0,-100.00,NW,320,15.0,22.0,40,0.00,,,-99.99,467.000000,,2013-09-12 21:54:00,
2013-09-12 17:04:00,70.0,45.0,-100.00,NW,320,15.0,22.0,40,0.00,,,-99.99,467.000000,,2013-09-12 22:04:00,
2013-09-12 17:43:00,68.0,45.0,-100.00,North,352,12.0,24.0,43,0.00,,,0.00,433.000000,,2013-09-12 22:43:00,
2013-09-12 17:54:00,68.0,45.0,-100.00,North,352,12.0,24.0,43,0.00,,,0.00,433.000000,,2013-09-12 22:54:00,
2013-09-12 18:04:00,68.0,45.0,-100.00,North,352,12.0,24.0,43,0.00,,,0.00,433.000000,,2013-09-12 23:04:00,
2013-09-12 18:43:00,66.0,42.0,-100.00,NNW,348,8.0,17.0,42,0.00,,,0.00,223.000000,,2013-09-12 23:43:00,
2013-09-12 18:53:00,66.0,42.0,-100.00,NNW,348,8.0,17.0,42,0.00,,,0.00,223.000000,,2013-09-12 23:53:00,
2013-09-12 19:01:00,66.0,42.0,-100.00,NNW,348,8.0,17.0,42,0.00,,,0.00,223.000000,,2013-09-13 00:01:00,
2013-09-12 19:42:00,64.0,42.0,-100.00,North,355,7.0,17.0,45,0.00,,,0.00,113.000000,,2013-09-13 00:42:00,
2013-09-12 19:52:00,64.0,42.0,-100.00,North,355,7.0,17.0,45,0.00,,,0.00,113.000000,,2013-09-13 00:52:00,
2013-09-12 20:01:00,64.0,42.0,-100.00,North,355,7.0,17.0,45,0.00,,,0.00,113.000000,,2013-09-13 01:01:00,
2013-09-12 20:42:00,59.0,43.0,-100.00,North,354,4.0,10.0,55,0.00,,,0.00,7.000000,,2013-09-13 01:42:00,
2013-09-12 20:53:00,59.0,43.0,-100.00,North,354,4.0,10.0,55,0.00,,,0.00,7.000000,,2013-09-13 01:53:00,
2013-09-12 21:02:00,59.0,43.0,-100.00,North,354,4.0,10.0,55,0.00,,,0.00,7.000000,,2013-09-13 02:02:00,
2013-09-12 21:43:00,55.0,44.0,-100.00,NNW,337,3.0,5.0,67,0.00,,,0.00,0.000000,,2013-09-13 02:43:00,
2013-09-12 21:53:00,55.0,44.0,-100.00,NNW,337,3.0,5.0,67,0.00,,,0.00,0.000000,,2013-09-13 02:53:00,
2013-09-12 22:02:00,55.0,44.0,-100.00,NNW,337,3.0,5.0,67,0.00,,,0.00,0.000000,,2013-09-13 03:02:00,
2013-09-12 22:45:00,51.0,44.0,-100.00,North,6,3.0,5.0,78,0.00,,,0.00,0.000000,,2013-09-13 03:45:00,
2013-09-12 22:55:00,51.0,44.0,-100.00,North,6,3.0,5.0,78,0.00,,,0.00,0.000000,,2013-09-13 03:55:00,
2013-09-12 23:04:00,51.0,44.0,-100.00,North,6,3.0,5.0,78,0.00,,,0.00,0.000000,,2013-09-13 04:04:00,
2013-09-12 23:44:00,51.0,44.0,-100.00,North,359,3.0,5.0,78,0.00,,,0.00,0.000000,,2013-09-13 04:44:00,
2013-09-12 23:54:00,51.0,44.0,-100.00,North,359,3.0,5.0,78,0.00,,,0.00,0.000000,,2013-09-13 04:54:00,